Wind_Speed
58 55 52 49 46 42 39 37 36 34 33 35 37 39 38 36 31 21 15 13 16 8 20 12 18 16 16 14 14 14 12 11 8 5 9 8 3 5 1 2 7 13 13 7 15 11 16 15 19 14 15 8 5 10
63 59 56 52 48 44 40 38 36 33 32 34 36 37 36 32 26 16 13 7 5 7 13 15 20 24 19 18 19 16 15 20 12 9 6 9 4 1 6 5 12 11 6 6 6 14 10 14 20 11 9 21 16 17
66 61 58 54 52 48 42 39 36 33 32 33 36 35 34 28 20 16 14 8 4 4 9 9 15 16 16 16 15 19 20 21 12 15 5 9 9 5 4 5 15 14 4 3 6 10 11 12 15 13 7 4 8 15
68 64 61 57 53 49 44 40 35 31 31 33 34 32 30 23 18 17 15 11 8 7 9 14 17 16 10 14 17 20 22 15 13 12 7 8 7 3 5 6 12 7 7 8 8 5 14 15 17 16 12 14 14 12
70 66 64 59 54 49 43 38 33 30 31 34 31 29 25 20 18 18 17 11 8 9 8 11 4 8 11 14 19 23 19 17 14 11 8 5 5 4 6 4 5 3 9 16 7 4 15 11 4 9 6 10 13 16
70 67 64 59 53 48 42 35 32 32 35 30 28 24 21 18 16 17 15 9 10 11 8 7 9 8 9 16 25 24 17 14 13 10 7 5 9 7 8 5 7 6 3 3 2 2 3 6 2 2 7 9 13 15
49 60 61 56 51 45 38 34 34 36 30 26 23 21 17 14 13 14 14 17 11 10 7 12 11 8 9 15 17 16 17 16 11 7 7 7 11 9 10 11 12 8 9 8 7 6 7 10 8 4 7 6 8 9
32 41 48 49 46 40 37 37 36 30 26 22 23 20 16 14 11 13 18 16 13 10 11 14 14 15 13 11 13 18 14 10 8 7 4 6 8 9 11 13 13 14 14 14 13 14 14 14 15 15 15 10 11 6
29 34 40 41 42 40 40 35 31 27 23 25 23 20 19 12 7 12 18 16 13 12 17 16 17 15 14 11 8 8 4 4 4 2 2 5 8 7 11 14 15 17 17 16 17 16 17 16 15 16 18 12 13 11
33 37 40 41 39 36 35 31 26 25 28 26 28 27 19 11 15 16 18 19 15 19 19 15 15 13 10 9 11 10 8 5 2 1 3 7 8 10 11 12 14 15 17 17 16 16 15 16 17 16 15 15 13 13
31 33 33 33 32 31 28 28 29 31 35 36 30 24 18 17 19 18 20 20 18 22 17 16 16 14 11 13 12 9 7 5 4 5 3 3 5 6 8 10 12 15 17 18 19 19 19 20 18 17 16 16 17 17
28 29 29 28 27 27 29 31 34 35 34 30 26 22 20 24 21 18 20 22 21 22 19 18 14 12 9 9 11 11 11 10 9 9 5 5 9 8 9 11 13 13 13 15 15 17 19 21 22 22 21 19 19 20
26 27 25 27 30 31 33 35 34 32 32 31 28 27 26 24 22 15 19 20 19 19 18 16 16 18 17 19 17 17 15 12 12 8 6 11 14 14 15 15 17 18 18 18 20 21 21 22 22 23 23 24 25 24
24 28 28 26 27 28 31 32 32 34 34 34 32 29 30 26 13 4 10 15 18 19 18 17 16 16 17 19 19 17 16 14 8 5 8 15 15 17 18 18 19 21 23 24 25 27 27 26 26 27 28 29 30 29
24 27 31 33 31 30 30 30 31 33 34 33 30 27 24 16 9 10 11 20 22 21 18 17 17 16 17 17 17 18 17 10 6 11 15 18 20 22 23 21 19 17 18 19 21 23 26 26 27 27 27 29 29 31
26 30 29 29 28 31 34 34 32 33 32 29 26 21 19 14 10 16 17 20 22 21 19 17 16 16 18 17 14 13 11 9 13 18 19 21 24 25 25 21 21 21 20 20 21 21 19 20 20 21 19 20 22 23
27 30 34 32 32 32 31 30 34 35 33 28 24 19 16 12 17 21 21 19 17 17 17 15 14 14 14 14 11 11 14 15 17 18 16 16 19 22 24 24 25 25 25 26 24 22 21 21 19 18 20 21 23 24
31 29 30 31 31 31 29 29 33 33 31 27 20 17 15 14 17 18 18 17 16 16 16 15 17 16 14 12 14 17 18 19 20 22 22 22 21 22 24 25 25 28 30 30 29 29 27 26 25 23 23 23 24 26
31 32 31 30 30 29 29 27 30 33 27 20 18 16 12 16 17 19 18 17 17 17 17 16 14 11 13 15 18 20 20 20 23 24 25 27 28 30 32 33 35 38 39 40 40 39 37 35 32 29 27 26 25 25
25 27 27 26 27 28 28 26 25 24 21 19 19 18 18 21 21 20 18 17 17 16 14 14 14 15 17 17 17 16 17 20 23 26 29 32 33 35 38 40 42 44 46 48 47 46 44 41 38 34 29 26 25 24
24 24 23 25 24 24 24 24 23 22 21 21 22 23 23 23 23 22 19 17 16 17 17 17 18 19 21 21 21 22 24 27 30 31 33 35 36 38 39 40 40 40 39 39 38 40 39 41 40 35 29 26 25 23
12 15 17 19 20 19 19 21 21 22 22 20 19 19 17 16 16 17 18 18 18 19 20 21 22 23 22 23 25 29 30 30 30 31 34 36 35 30 22 19 21 26 24 20 17 13 20 22 27 29 26 24 24 23
12 11 13 10 14 16 17 19 20 20 20 20 19 16 15 14 15 17 18 18 19 20 21 22 24 25 28 31 33 31 30 30 29 25 21 18 16 16 17 17 17 18 19 18 12 6 6 9 13 17 20 23 24 24
10 11 14 16 15 14 15 14 14 14 15 15 15 15 15 15 17 18 17 18 20 22 25 28 31 31 32 32 32 30 26 19 16 15 16 16 17 18 18 18 17 16 14 13 10 4 2 6 10 14 17 18 20 22
12 13 13 13 14 15 14 14 13 13 12 12 12 12 13 15 16 17 18 19 21 22 21 19 16 14 12 12 12 13 15 17 18 19 19 19 19 18 16 16 16 16 16 15 14 13 13 15 16 17 18 18 19 20
15 16 17 17 16 14 13 12 10 10 8 8 8 9 10 9 9 9 9 9 9 10 11 12 13 13 14 15 16 18 19 21 23 23 24 24 24 23 23 23 22 22 21 20 19 19 20 19 19 20 21 23 24 24
15 15 14 12 12 12 12 10 9 9 7 6 5 4 3 5 6 9 11 13 15 16 18 19 21 22 23 25 26 27 29 30 31 32 32 33 32 32 31 30 29 29 27 26 26 25 25 26 26 26 27 28 28 29
15 14 13 11 10 8 10 9 7 6 5 5 6 8 10 12 13 15 17 19 21 23 25 27 29 30 32 33 34 35 36 37 38 39 39 39 39 39 38 37 36 35 34 34 33 32 31 31 31 31 31 31 32 32
14 10 8 7 6 5 5 5 6 7 8 10 11 13 15 17 18 20 22 25 27 31 34 35 36 37 37 38 38 38 38 39 39 39 39 39 39 39 38 38 38 38 38 38 38 37 37 37 36 36 36 36 36 36
7 6 3 0 2 4 6 8 10 11 12 13 13 14 17 21 25 28 29 30 30 30 30 31 32 32 32 32 32 33 35 36 38 39 40 40 40 39 38 37 37 36 36 36 36 37 38 38 39 39 39 39 39 39
2 3 5 6 8 7 7 7 7 9 12 15 18 22 25 26 24 23 22 23 23 23 24 25 26 28 30 32 34 35 36 36 37 37 37 37 37 36 35 35 34 33 33 33 33 33 33 33 34 34 34 35 35 35
9 10 10 11 12 12 10 10 13 15 16 18 23 24 22 20 20 21 22 24 25 26 27 27 29 30 32 33 34 32 30 27 26 25 24 24 24 24 25 25 25 26 26 27 27 28 28 28 29 29 30 30 30 31
15 15 15 15 16 15 14 14 13 15 18 21 22 20 20 20 22 23 24 24 24 25 26 29 31 32 31 29 25 22 20 20 20 19 19 18 18 18 17 17 18 19 20 20 21 22 23 24 25 26 27 28 28 29
Wind_Direction
247 248 250 252 253 255 258 261 263 267 276 285 292 295 302 307 305 295 305 336 357 208 205 204 216 226 234 237 234 254 229 210 185 235 214 174 95 353 228 191 320 351 337 294 291 249 173 188 200 206 212 249 224 214
245 247 248 249 249 252 256 259 260 265 273 281 285 291 301 302 296 278 283 310 7 120 187 212 220 235 243 246 239 234 206 182 196 192 180 222 179 208 212 272 15 17 326 345 210 173 166 169 187 211 228 250 263 268
243 244 244 244 246 250 253 255 258 263 269 276 279 288 297 295 278 263 265 270 250 222 228 230 241 245 245 235 224 211 202 188 203 183 201 197 185 194 283 346 38 45 65 209 159 183 173 179 197 213 263 249 274 273
240 241 241 242 244 246 248 249 251 258 262 267 275 285 289 281 265 251 253 249 251 234 232 246 254 268 251 221 206 206 192 201 203 199 196 193 222 219 307 4 50 19 55 178 165 201 186 181 205 223 236 241 268 274
237 236 236 237 238 239 240 241 244 248 253 260 270 281 274 266 255 242 245 250 255 247 237 259 215 192 190 187 185 184 189 196 198 210 209 247 257 232 265 339 347 357 60 171 196 166 198 227 199 186 242 265 278 288
235 232 231 231 231 230 229 231 233 238 246 256 266 264 254 254 246 237 237 246 239 236 260 228 173 164 168 179 191 200 211 207 204 202 207 241 257 232 218 240 262 257 242 135 226 57 120 144 222 237 290 282 298 290
230 228 227 225 221 221 219 219 224 234 242 248 251 236 242 244 240 230 220 228 232 245 239 190 166 162 164 189 199 212 215 212 190 211 275 281 244 229 218 227 256 253 244 254 255 249 242 225 208 251 320 275 289 271
219 214 212 211 211 207 208 216 224 227 230 234 218 222 226 237 236 228 220 223 224 236 199 175 152 143 152 178 203 217 226 245 263 271 272 234 227 212 214 229 246 258 266 268 270 273 271 271 259 263 276 261 273 263
203 193 192 191 195 200 209 215 213 215 217 203 206 213 223 223 224 231 224 221 226 205 179 163 158 158 173 182 192 174 163 190 187 198 200 224 237 238 229 235 245 251 259 266 267 265 266 265 261 262 268 249 261 268
167 175 184 190 195 199 202 197 201 195 189 191 200 211 222 208 222 232 226 216 215 182 166 169 172 171 168 169 165 161 210 221 165 238 221 222 218 224 228 235 239 244 250 257 263 265 265 261 260 259 255 251 251 253
169 175 180 185 185 182 185 184 180 182 187 198 201 203 203 210 229 237 231 223 199 162 175 188 186 186 182 180 197 191 228 237 248 282 277 273 250 232 238 238 239 241 245 250 257 261 266 267 265 260 251 242 244 251
153 156 159 160 162 168 175 180 181 185 191 195 198 209 211 218 234 240 229 212 179 179 194 205 200 201 200 218 234 248 259 281 290 279 288 280 270 265 254 256 258 255 259 259 258 258 261 267 270 270 268 258 246 247
151 154 160 169 171 171 176 182 184 186 189 195 204 211 212 227 239 243 214 179 176 184 203 208 220 229 231 238 247 252 264 276 281 288 269 255 271 271 272 274 276 279 280 281 278 274 271 269 269 270 270 269 267 261
171 173 173 175 177 181 182 184 185 184 187 197 204 205 213 226 242 260 152 168 187 203 211 221 228 233 239 241 246 256 269 277 294 302 253 261 265 267 267 270 274 280 284 286 288 285 282 280 278 276 274 271 268 266
177 178 178 181 188 186 183 186 186 185 185 197 204 209 214 223 227 202 187 188 200 213 218 227 231 231 235 246 256 268 270 279 273 251 252 257 264 270 279 286 289 281 276 279 282 280 275 276 279 280 280 281 281 277
176 177 175 178 177 179 181 182 179 182 187 196 202 204 203 212 215 188 189 200 212 216 219 224 232 238 244 248 246 260 270 267 259 261 267 269 269 280 284 279 275 274 278 283 285 284 275 276 277 275 272 270 274 281
164 167 168 164 164 166 167 171 176 182 193 193 191 197 195 198 182 184 189 197 206 212 220 223 223 235 243 250 255 257 260 263 270 274 281 286 284 274 268 277 276 268 274 280 278 276 272 272 276 282 278 279 273 268
134 147 156 162 164 164 163 165 174 181 188 185 183 189 186 177 168 177 185 191 195 201 209 216 223 232 243 255 254 260 268 266 270 267 271 278 278 277 275 273 270 271 274 275 274 273 271 269 273 278 281 279 279 274
122 126 134 147 155 162 163 167 177 187 184 175 184 178 178 188 189 188 191 196 202 207 213 221 231 244 262 268 268 266 262 262 263 267 273 279 282 282 281 279 277 275 274 273 271 269 267 266 267 270 272 277 273 276
112 138 145 150 151 154 157 167 176 176 170 171 180 184 182 185 191 195 203 211 218 223 230 236 246 261 270 270 267 265 268 271 273 276 277 279 280 280 281 282 282 282 280 278 275 270 266 262 261 263 265 268 266 268
108 114 125 146 154 149 152 156 160 165 168 172 180 186 187 194 202 209 216 222 228 234 244 252 259 267 274 271 268 272 279 283 286 285 285 285 284 284 284 287 288 290 292 289 281 273 265 258 256 256 256 260 258 264
103 115 119 139 148 155 160 166 170 172 177 183 189 187 188 198 211 221 225 233 242 250 257 261 268 271 269 271 277 281 286 286 286 288 289 288 288 289 291 295 295 310 322 318 316 281 254 257 248 242 245 251 250 257
147 163 188 176 168 173 174 184 184 184 184 186 193 203 215 224 230 236 241 249 255 260 264 265 266 268 272 275 278 280 282 285 288 289 291 292 292 298 296 300 304 321 339 352 351 325 266 234 217 224 240 248 249 253
162 156 157 165 165 173 178 176 179 182 190 200 204 209 221 231 239 246 250 257 261 264 266 268 271 274 276 276 277 277 277 270 276 291 299 299 297 293 294 294 300 306 313 326 331 325 233 224 233 240 246 249 256 256
144 148 149 152 158 165 170 177 187 194 200 206 216 223 235 243 250 254 258 263 266 269 271 272 271 271 273 276 274 267 269 277 283 284 285 286 288 289 292 294 292 293 295 295 294 292 291 287 283 273 263 264 266 260
128 128 130 135 140 144 147 154 164 175 185 197 211 225 237 242 242 240 247 249 257 262 267 272 274 277 278 278 278 278 277 277 277 279 281 282 283 284 285 286 286 284 282 281 279 278 276 274 272 269 265 263 262 260
130 137 134 132 128 131 136 140 141 144 145 149 159 179 211 240 251 258 264 267 268 271 275 278 278 278 278 277 277 276 276 276 277 278 279 281 282 282 283 282 282 281 280 279 276 274 271 270 267 266 264 263 263 263
128 133 138 140 139 150 148 151 159 172 198 226 244 258 267 273 278 278 280 282 283 283 284 284 284 283 282 281 280 279 279 279 279 280 280 280 280 280 280 279 278 277 276 276 275 275 273 271 270 270 271 271 270 269
124 126 127 127 138 154 175 201 229 244 254 264 273 280 284 285 287 288 288 286 285 285 285 285 285 285 284 285 285 285 285 285 285 283 283 282 281 280 279 277 275 274 272 271 270 270 270 270 270 269 268 268 269 271
139 134 126 137 293 277 269 268 270 274 278 283 286 286 291 296 297 294 291 289 288 288 288 287 287 287 287 288 290 290 289 288 286 284 283 281 280 279 278 278 277 275 274 272 270 269 269 269 269 269 269 269 270 271
233 284 304 311 315 309 294 282 279 285 289 290 294 300 305 306 303 302 301 301 301 301 299 296 294 293 294 295 295 294 292 289 286 283 281 280 279 278 277 276 275 274 273 272 272 272 271 271 271 272 272 273 273 274
270 284 294 309 324 328 321 310 303 300 300 305 314 317 313 313 312 312 313 313 310 308 306 305 305 303 302 300 298 297 297 297 295 292 292 291 289 286 283 281 279 278 276 275 275 274 274 275 275 276 276 277 278 278
273 282 293 300 309 314 309 306 305 311 318 322 321 321 322 322 323 322 321 318 316 316 316 315 314 310 305 302 299 299 303 306 305 301 298 296 296 296 295 293 290 287 285 283 282 281 280 280 280 280 280 280 280 280
Height
5450 5456 5462 5467 5472 5476 5480 5483 5485 5486 5487 5487 5485 5482 5480 5476 5473 5471 5469 5465 5460 5456 5461 5465 5468 5471 5473 5474 5476 5477 5479 5480 5483 5484 5485 5485 5488 5490 5491 5492 5492 5490 5485 5484 5485 5486 5492 5496 5501 5505 5507 5507 5507 5510
5434 5441 5447 5453 5459 5464 5469 5473 5475 5477 5479 5479 5478 5475 5473 5470 5468 5468 5466 5465 5462 5460 5463 5465 5468 5469 5470 5472 5473 5475 5477 5479 5481 5483 5484 5485 5486 5488 5489 5489 5490 5485 5484 5484 5484 5487 5491 5495 5500 5500 5505 5507 5508 5508
5416 5425 5432 5439 5445 5452 5458 5462 5465 5469 5470 5471 5470 5469 5467 5465 5464 5464 5464 5464 5462 5462 5462 5464 5465 5465 5468 5468 5470 5474 5476 5478 5479 5481 5483 5484 5485 5488 5487 5488 5488 5485 5485 5485 5488 5491 5492 5494 5497 5499 5500 5502 5504 5506
5398 5407 5415 5424 5432 5439 5446 5451 5456 5460 5462 5463 5463 5462 5461 5460 5460 5460 5461 5462 5462 5463 5463 5463 5462 5462 5463 5464 5467 5471 5474 5477 5479 5481 5483 5484 5485 5487 5485 5486 5486 5486 5486 5487 5490 5491 5492 5494 5497 5498 5500 5501 5501 5504
5378 5388 5398 5408 5418 5426 5434 5441 5446 5451 5454 5455 5456 5456 5455 5455 5456 5456 5457 5460 5460 5462 5462 5460 5460 5460 5461 5463 5467 5471 5474 5477 5479 5481 5483 5484 5484 5486 5485 5486 5487 5486 5487 5487 5490 5492 5492 5494 5497 5498 5500 5500 5499 5498
5357 5368 5380 5393 5404 5414 5423 5430 5437 5442 5445 5448 5449 5450 5450 5451 5452 5452 5455 5457 5457 5458 5458 5458 5459 5460 5462 5465 5469 5472 5475 5478 5480 5480 5482 5483 5482 5485 5485 5486 5486 5487 5488 5490 5492 5492 5493 5495 5496 5498 5498 5498 5497 5495
5336 5349 5364 5378 5390 5402 5412 5420 5428 5433 5438 5441 5443 5445 5446 5447 5448 5449 5452 5451 5454 5455 5457 5458 5459 5462 5464 5467 5471 5473 5475 5476 5478 5480 5481 5481 5481 5482 5485 5486 5485 5486 5487 5488 5490 5492 5493 5493 5494 5495 5496 5495 5494 5494
5326 5336 5351 5366 5381 5393 5403 5412 5419 5426 5430 5435 5439 5441 5442 5443 5444 5446 5446 5449 5451 5454 5456 5458 5460 5463 5465 5468 5471 5473 5474 5475 5477 5478 5478 5480 5481 5482 5483 5483 5483 5483 5484 5485 5487 5488 5489 5490 5491 5492 5493 5493 5493 5493
5321 5331 5345 5359 5373 5384 5394 5404 5412 5418 5424 5430 5434 5436 5437 5440 5442 5442 5444 5447 5449 5454 5455 5457 5460 5463 5466 5468 5470 5472 5474 5474 5475 5476 5477 5479 5479 5480 5480 5481 5481 5482 5482 5483 5483 5484 5485 5486 5487 5489 5489 5489 5490 5490
5321 5332 5344 5356 5367 5379 5388 5397 5405 5413 5420 5425 5427 5430 5434 5438 5439 5440 5441 5444 5447 5451 5454 5458 5462 5463 5465 5467 5469 5471 5472 5473 5474 5476 5476 5477 5478 5478 5479 5479 5479 5480 5480 5481 5481 5481 5481 5481 5483 5484 5485 5485 5486 5487
5326 5335 5345 5355 5364 5374 5383 5392 5401 5409 5413 5415 5422 5428 5433 5435 5436 5437 5438 5442 5446 5451 5455 5457 5460 5462 5465 5466 5468 5469 5470 5472 5473 5474 5474 5474 5475 5476 5476 5476 5476 5476 5476 5477 5477 5477 5477 5477 5478 5479 5480 5481 5482 5483
5329 5337 5346 5354 5363 5372 5381 5389 5397 5403 5411 5418 5423 5427 5430 5431 5432 5433 5435 5440 5446 5450 5454 5456 5460 5462 5465 5466 5467 5469 5470 5471 5472 5472 5473 5473 5472 5472 5473 5473 5472 5473 5473 5473 5473 5473 5473 5473 5473 5473 5474 5475 5477 5478
5333 5340 5348 5356 5364 5372 5379 5387 5395 5402 5410 5415 5419 5422 5426 5428 5428 5430 5433 5442 5448 5451 5452 5455 5458 5460 5462 5464 5465 5466 5468 5470 5470 5471 5471 5470 5469 5469 5469 5469 5469 5468 5468 5468 5468 5468 5468 5468 5468 5468 5468 5469 5469 5471
5336 5342 5350 5357 5364 5371 5378 5386 5393 5399 5406 5411 5414 5418 5421 5423 5429 5433 5437 5441 5445 5448 5450 5453 5456 5458 5459 5461 5462 5463 5465 5466 5468 5468 5467 5465 5465 5465 5465 5465 5465 5465 5464 5464 5463 5462 5461 5461 5461 5461 5461 5461 5461 5463
5335 5341 5348 5356 5363 5370 5377 5384 5390 5397 5402 5407 5412 5417 5421 5425 5429 5432 5436 5439 5442 5445 5449 5451 5453 5456 5456 5457 5459 5460 5461 5463 5464 5464 5463 5461 5460 5460 5460 5460 5461 5460 5459 5458 5457 5455 5454 5454 5454 5454 5454 5453 5453 5453
5332 5338 5346 5353 5361 5368 5375 5382 5390 5396 5401 5406 5411 5417 5420 5424 5427 5430 5433 5436 5439 5443 5446 5449 5451 5453 5453 5455 5457 5458 5459 5460 5459 5457 5457 5457 5456 5455 5455 5454 5454 5453 5452 5452 5451 5449 5448 5448 5447 5447 5446 5446 5446 5446
5331 5340 5347 5355 5362 5369 5376 5383 5390 5396 5400 5405 5410 5416 5420 5423 5425 5427 5431 5435 5438 5441 5444 5446 5448 5449 5450 5452 5454 5454 5454 5454 5453 5453 5453 5452 5451 5449 5448 5448 5447 5446 5445 5445 5444 5443 5442 5441 5440 5440 5439 5439 5438 5437
5338 5345 5352 5359 5366 5372 5378 5384 5390 5394 5400 5406 5411 5415 5420 5423 5425 5427 5430 5433 5436 5439 5441 5443 5444 5444 5446 5448 5449 5449 5449 5448 5448 5447 5447 5446 5445 5443 5441 5440 5439 5438 5436 5435 5434 5433 5433 5432 5432 5431 5431 5430 5429 5428
5350 5353 5359 5364 5370 5375 5381 5386 5391 5396 5401 5407 5411 5415 5418 5421 5423 5426 5429 5431 5433 5435 5437 5439 5441 5443 5443 5443 5443 5443 5443 5442 5442 5441 5440 5439 5438 5436 5433 5431 5429 5427 5426 5424 5423 5422 5421 5422 5422 5422 5422 5422 5421 5420
5359 5362 5366 5370 5375 5379 5384 5389 5395 5400 5403 5407 5410 5414 5417 5419 5422 5424 5427 5429 5431 5433 5435 5437 5438 5439 5438 5438 5438 5438 5438 5437 5436 5435 5433 5431 5429 5426 5423 5420 5417 5413 5410 5407 5405 5405 5406 5407 5409 5411 5412 5412 5412 5411
5368 5371 5373 5377 5381 5385 5389 5393 5396 5400 5403 5406 5409 5412 5414 5417 5420 5422 5425 5427 5429 5430 5432 5433 5433 5433 5433 5433 5432 5432 5431 5429 5427 5425 5423 5421 5419 5415 5411 5408 5404 5399 5393 5388 5385 5383 5386 5390 5394 5398 5401 5402 5403 5403
5374 5377 5380 5383 5386 5389 5392 5395 5398 5401 5403 5406 5409 5412 5414 5417 5419 5421 5423 5424 5425 5427 5427 5428 5427 5427 5426 5426 5425 5424 5422 5420 5418 5416 5413 5410 5407 5404 5402 5400 5397 5393 5385 5378 5373 5370 5374 5378 5381 5387 5391 5393 5395 5395
5378 5380 5383 5386 5388 5391 5394 5396 5398 5401 5404 5407 5409 5411 5413 5415 5417 5418 5419 5420 5421 5421 5421 5421 5420 5420 5419 5418 5417 5415 5414 5412 5410 5407 5404 5402 5400 5398 5396 5394 5392 5389 5384 5379 5374 5372 5373 5374 5377 5381 5385 5386 5387 5387
5379 5380 5383 5385 5387 5390 5393 5396 5398 5401 5403 5405 5407 5409 5411 5412 5413 5414 5415 5415 5415 5415 5415 5414 5412 5411 5410 5408 5406 5405 5404 5403 5403 5401 5399 5397 5395 5394 5392 5390 5388 5385 5383 5381 5379 5377 5376 5377 5377 5378 5379 5379 5379 5379
5382 5383 5384 5386 5388 5391 5393 5396 5398 5400 5402 5404 5405 5407 5408 5409 5409 5410 5410 5410 5409 5408 5407 5406 5405 5403 5402 5401 5400 5399 5399 5398 5397 5395 5394 5392 5390 5388 5387 5385 5383 5381 5380 5378 5377 5377 5376 5376 5375 5375 5374 5374 5374 5374
5383 5385 5387 5388 5390 5392 5394 5396 5398 5400 5401 5402 5403 5404 5405 5405 5405 5406 5406 5405 5405 5404 5403 5402 5401 5399 5398 5397 5395 5394 5393 5392 5390 5389 5387 5385 5384 5382 5380 5379 5377 5376 5374 5373 5372 5371 5370 5369 5369 5368 5368 5368 5367 5367
5386 5388 5390 5392 5393 5395 5396 5397 5399 5400 5401 5402 5403 5403 5403 5403 5403 5404 5403 5402 5401 5400 5399 5397 5396 5394 5392 5391 5389 5387 5385 5383 5382 5380 5378 5376 5374 5372 5371 5370 5368 5367 5366 5365 5364 5363 5362 5361 5360 5359 5359 5358 5357 5357
5389 5391 5393 5394 5395 5397 5397 5399 5400 5400 5401 5402 5402 5401 5401 5401 5401 5400 5398 5397 5395 5394 5392 5390 5388 5386 5383 5381 5379 5377 5375 5373 5370 5368 5366 5364 5363 5361 5359 5358 5357 5356 5355 5354 5353 5352 5351 5351 5350 5350 5349 5348 5347 5346
5393 5394 5396 5396 5397 5398 5398 5399 5399 5399 5400 5399 5399 5398 5398 5396 5395 5394 5392 5389 5387 5385 5382 5379 5377 5374 5371 5369 5366 5364 5361 5359 5357 5354 5352 5350 5349 5347 5346 5344 5343 5342 5341 5341 5340 5340 5339 5338 5337 5337 5337 5336 5335 5335
5395 5396 5396 5397 5397 5397 5397 5397 5396 5396 5396 5395 5395 5394 5392 5391 5388 5386 5382 5379 5376 5374 5371 5369 5366 5363 5360 5357 5354 5352 5349 5346 5343 5341 5339 5337 5335 5333 5332 5330 5329 5328 5328 5327 5326 5326 5325 5324 5324 5323 5323 5322 5322 5321
5395 5395 5395 5395 5395 5394 5394 5393 5393 5393 5392 5391 5390 5388 5386 5382 5379 5376 5373 5370 5367 5364 5361 5359 5356 5353 5350 5347 5343 5340 5336 5333 5330 5327 5324 5322 5320 5319 5318 5317 5316 5315 5314 5314 5313 5312 5312 5311 5311 5310 5309 5309 5308 5307
5393 5392 5392 5392 5391 5391 5390 5390 5389 5388 5387 5385 5383 5380 5377 5374 5371 5369 5365 5362 5359 5356 5352 5349 5346 5343 5339 5335 5331 5327 5323 5321 5318 5316 5313 5311 5309 5308 5307 5306 5304 5304 5303 5302 5302 5301 5301 5300 5299 5299 5298 5297 5296 5295
5388 5388 5388 5388 5387 5386 5386 5385 5384 5383 5381 5379 5376 5373 5370 5368 5365 5362 5358 5354 5351 5348 5344 5340 5336 5331 5327 5323 5320 5318 5316 5313 5311 5309 5307 5305 5303 5302 5300 5299 5297 5296 5295 5294 5293 5292 5292 5291 5289 5289 5288 5287 5286 5285